Date String (YYYY-MM-DD hh:mm:ss) UTC,Instrument flags,Ambient pressure (hPa),Sample flow (lpm),Bypass flow (lpm),Sample temperature (°C),Ambient temperature (°C),ASC tube jacket temperature (°C),LED temperature (°C),Box temperature (°C),Sample RH (%),Span deviation,Mass concentration (μg/m³),Mass concentration (μg/m³),Mass concentration (μg/m³)
DateTimeUTC,F1_M11,P_M11,Q1_M11,Q2_M11,T1_M11,T2_M11,T3_M11,T4_M11,T5_M11,U1_M11,ZSPAN_M11,X0_M11,X2_M11,X1_M11
2022-02-24 13:00:00,,0819.9,5.00,0.00,22.5,21.6,00.0,31.5,24.2,04.4,0000.0,0008.09,0004.80,0004.23
2022-02-24 13:01:00,,0819.9,4.99,0.00,22.4,21.5,00.0,31.5,24.1,04.4,0000.0,0008.16,0004.79,0004.23
2022-02-24 13:02:00,,0819.9,5.01,0.00,22.4,21.6,00.0,31.5,24.0,04.4,0000.0,0008.13,0004.78,0004.23
2022-02-24 13:03:00,,0819.9,4.99,0.00,22.5,22.1,00.0,31.5,24.2,04.4,0000.0,0008.29,0004.77,0004.23
2022-02-24 13:04:00,,0819.9,5.01,0.00,22.6,22.9,00.0,31.5,24.4,04.4,0000.0,0008.65,0004.79,0004.23
2022-02-24 13:05:00,,0819.8,4.99,0.00,22.7,23.1,00.0,31.5,24.6,04.3,0000.0,0008.68,0004.79,0004.24
2022-02-24 13:06:00,,0819.8,5.00,0.00,22.7,22.8,00.0,31.5,24.6,04.3,0000.0,0008.71,0004.76,0004.24
2022-02-24 13:07:00,,0819.9,5.00,0.00,22.7,22.5,00.0,31.5,24.5,04.3,0000.0,0008.85,0004.81,0004.25
2022-02-24 13:08:00,,0819.9,4.99,0.00,22.6,22.2,00.0,31.5,24.4,04.3,0000.0,0008.91,0004.83,0004.24
2022-02-24 13:09:00,,0819.9,4.99,0.00,22.6,22.0,00.0,31.5,24.3,04.4,0000.0,0009.02,0004.85,0004.25
2022-02-24 13:10:00,,0819.8,5.02,0.00,22.5,21.8,00.0,31.5,24.2,04.4,0000.0,0009.13,0004.85,0004.25
2022-02-24 13:11:00,,0819.8,4.99,0.00,22.5,21.6,00.0,31.5,24.2,04.4,0000.0,0009.19,0004.82,0004.25
2022-02-24 13:12:00,,0819.8,5.00,0.00,22.4,21.4,00.0,31.5,24.1,04.4,0000.0,0009.84,0004.83,0004.26
2022-02-24 13:13:00,,0819.8,5.00,0.00,22.4,21.6,00.0,31.5,24.1,04.4,0000.1,0009.87,0004.83,0004.26
2022-02-24 13:14:00,,0819.9,5.01,0.00,22.5,22.4,00.0,31.5,24.2,04.4,0000.2,0009.81,0004.87,0004.29
2022-02-24 13:15:00,,0819.9,5.00,0.00,22.6,23.1,00.0,31.5,24.5,04.3,0000.6,0009.54,0004.88,0004.31
2022-02-24 13:16:00,,0819.9,5.01,0.00,22.7,23.1,00.0,31.5,24.6,04.3,0000.8,0009.92,0004.86,0004.33
2022-02-24 13:17:00,,0819.9,4.99,0.00,22.7,22.7,00.0,31.5,24.5,04.3,0000.4,0009.90,0004.87,0004.35
2022-02-24 13:18:00,,0819.9,5.00,0.00,22.7,22.4,00.0,31.5,24.4,04.3,0000.6,0009.86,0004.84,0004.35
2022-02-24 13:19:00,,0819.9,5.00,0.00,22.6,22.1,00.0,31.5,24.3,04.3,0000.3,0009.89,0004.83,0004.35
2022-02-24 13:20:00,,0819.9,5.01,0.00,22.6,21.9,00.0,31.5,24.3,04.3,0000.4,0010.09,0004.81,0004.35
2022-02-24 13:21:00,,0819.9,4.99,0.00,22.5,21.7,00.0,31.5,24.2,04.4,0000.6,0009.86,0004.78,0004.34
2022-02-24 13:22:00,,0819.9,5.01,0.00,22.5,21.5,00.0,31.5,24.1,04.4,0000.2,0009.57,0004.77,0004.33
2022-02-24 13:23:00,,0819.9,5.01,0.00,22.4,21.4,00.0,31.5,24.1,04.4,-000.7,0008.78,0004.74,0004.32
2022-02-24 13:24:00,,0819.9,5.00,0.00,22.4,21.9,00.0,31.5,24.1,04.4,-000.4,0008.72,0004.76,0004.30
2022-02-24 13:25:00,,0819.9,4.99,0.00,22.5,22.6,00.0,31.5,24.3,04.3,0000.4,0008.62,0004.71,0004.28
2022-02-24 13:26:00,,0819.9,5.02,0.00,22.7,23.3,00.0,31.5,24.6,04.3,0000.3,0008.56,0004.72,0004.26
2022-02-24 13:27:00,,0820.0,5.00,0.00,22.8,23.3,00.0,31.6,24.7,04.3,-000.2,0008.06,0004.69,0004.23
2022-02-24 13:28:00,,0820.0,5.00,0.00,22.8,23.0,00.0,31.6,24.7,04.3,0000.4,0008.06,0004.68,0004.21
2022-02-24 13:29:00,,0819.9,4.99,0.00,22.7,22.6,00.0,31.6,24.6,04.3,0000.1,0008.01,0004.68,0004.18
2022-02-24 13:30:00,,0819.9,5.00,0.00,22.7,22.3,00.0,31.6,24.5,04.3,0001.0,0008.03,0004.68,0004.16
2022-02-24 13:31:00,,0820.0,5.01,0.00,22.7,22.0,00.0,31.6,24.3,04.3,0000.9,0007.94,0004.71,0004.17
2022-02-24 13:32:00,,0820.0,5.00,0.00,22.6,21.8,00.0,31.6,24.3,04.3,0000.8,0007.89,0004.71,0004.16
2022-02-24 13:33:00,,0820.0,4.99,0.00,22.5,21.6,00.0,31.5,24.2,04.3,0000.0,0008.02,0004.73,0004.15
2022-02-24 13:34:00,,0820.0,5.01,0.00,22.5,21.4,00.0,31.5,24.1,04.3,0000.0,0008.06,0004.74,0004.14
2022-02-24 13:35:00,,0820.0,5.00,0.00,22.4,21.4,00.0,31.5,24.1,04.4,0000.0,0008.05,0004.73,0004.13
2022-02-24 13:36:00,,0820.0,5.00,0.00,22.5,22.1,00.0,31.5,24.2,04.3,0000.5,0008.37,0004.73,0004.16
2022-02-24 13:37:00,,0819.9,4.99,0.00,22.6,22.8,00.0,31.5,24.4,04.3,0000.1,0008.33,0004.73,0004.19
2022-02-24 13:38:00,,0819.9,5.01,0.00,22.7,23.0,00.0,31.6,24.6,04.3,-000.1,0008.46,0004.83,0004.25
2022-02-24 13:39:00,,0819.9,4.98,0.00,22.7,22.8,00.0,31.6,24.6,04.3,0000.3,0008.59,0004.92,0004.34
2022-02-24 13:40:00,,0819.9,5.01,0.00,22.7,22.4,00.0,31.6,24.5,04.3,0000.3,0008.69,0004.99,0004.42
2022-02-24 13:41:00,,0819.9,5.00,0.00,22.6,22.2,00.0,31.6,24.4,04.3,-000.1,0008.68,0005.01,0004.46
2022-02-24 13:42:00,,0819.9,5.00,0.00,22.6,21.9,00.0,31.5,24.3,04.3,-000.9,0008.54,0004.99,0004.48
2022-02-24 13:43:00,,0819.9,5.01,0.00,22.5,21.7,00.0,31.5,24.2,04.3,-001.5,0008.64,0005.03,0004.50
2022-02-24 13:44:00,,0820.0,5.00,0.00,22.5,21.6,00.0,31.5,24.1,04.3,-001.6,0008.60,0005.05,0004.51
2022-02-24 13:45:00,,0820.0,5.01,0.00,22.4,21.4,00.0,31.5,24.1,04.4,-001.3,0008.57,0005.06,0004.54
2022-02-24 13:46:00,,0820.1,5.01,0.00,22.4,21.5,00.0,31.5,24.0,04.4,-001.2,0008.55,0005.07,0004.56
2022-02-24 13:47:00,,0820.1,4.98,0.00,22.5,22.3,00.0,31.5,24.2,04.4,-000.5,0008.34,0005.10,0004.56
2022-02-24 13:48:00,,0820.1,5.02,0.00,22.6,23.0,00.0,31.5,24.5,04.3,-000.3,0008.18,0005.08,0004.54
2022-02-24 13:49:00,,0820.0,5.00,0.00,22.7,23.0,00.0,31.6,24.6,04.3,0000.6,0008.03,0005.01,0004.50
2022-02-24 13:50:00,,0819.9,4.99,0.00,22.7,22.7,00.0,31.6,24.5,04.3,-000.7,0007.86,0004.93,0004.43
2022-02-24 13:51:00,,0820.0,5.00,0.00,22.6,22.4,00.0,31.6,24.4,04.3,-001.2,0007.92,0004.85,0004.36
2022-02-24 13:52:00,,0820.0,5.00,0.00,22.6,22.1,00.0,31.5,24.3,04.3,-002.0,0007.81,0004.79,0004.32
2022-02-24 13:53:00,,0820.1,5.00,0.00,22.6,21.9,00.0,31.5,24.3,04.3,-001.6,0007.82,0004.79,0004.31
2022-02-24 13:54:00,,0820.2,5.00,0.00,22.5,21.8,00.0,31.5,24.2,04.4,-000.1,0007.74,0004.75,0004.30
2022-02-24 13:55:00,,0820.3,5.01,0.00,22.5,21.6,00.0,31.5,24.1,04.4,0000.0,0007.82,0004.71,0004.30
2022-02-24 13:56:00,,0820.2,4.99,0.00,22.4,21.5,00.0,31.5,24.0,04.4,0000.0,0007.83,0004.70,0004.30
2022-02-24 13:57:00,,0820.3,5.00,0.00,22.4,21.9,00.0,31.5,24.1,04.4,0000.0,0007.88,0004.72,0004.30
2022-02-24 13:58:00,,0820.2,5.00,0.00,22.5,22.5,00.0,31.5,24.2,04.4,0000.0,0007.92,0004.72,0004.31
2022-02-24 13:59:00,,0820.2,5.00,0.00,22.6,23.1,00.0,31.5,24.5,04.4,0000.0,0008.32,0004.72,0004.32
